Météo par heure à Alihe

Ce jour, 15 Mai, Samedi

Heure Température Précipitation Vent Pression Humidité
00:00 +5°C° 0 mm 1 m/s 708 mmHg 91%
01:00 +4°C° 0 mm 1 m/s 707 mmHg 91%
02:00 +4°C° 0 mm 1 m/s 707 mmHg 90%
03:00 +3°C° 0 mm 2 m/s 707 mmHg 88%
04:00 +3°C° 0 mm 2 m/s 707 mmHg 86%
05:00 +3°C° 0 mm 3 m/s 707 mmHg 84%
06:00 +4°C° 0 mm 4 m/s 707 mmHg 75%
07:00 +6°C° 0 mm 5 m/s 708 mmHg 67%
08:00 +8°C° 0 mm 6 m/s 708 mmHg 59%
09:00 +9°C° 0 mm 6 m/s 708 mmHg 54%
10:00 +10°C° 0 mm 6 m/s 708 mmHg 50%
11:00 +11°C° 0 mm 6 m/s 708 mmHg 45%
12:00 +12°C° 0 mm 7 m/s 708 mmHg 42%
13:00 +14°C° 0 mm 7 m/s 708 mmHg 40%
14:00 +14°C° 0 mm 7 m/s 708 mmHg 38%
15:00 +15°C° 0 mm 6 m/s 708 mmHg 36%
16:00 +15°C° 0 mm 6 m/s 708 mmHg 34%
17:00 +16°C° 0 mm 5 m/s 707 mmHg 33%
18:00 +14°C° 0 mm 4 m/s 708 mmHg 36%
19:00 +12°C° 0 mm 3 m/s 708 mmHg 40%
20:00 +10°C° 0 mm 3 m/s 709 mmHg 43%
21:00 +9°C° 0 mm 2 m/s 709 mmHg 47%
22:00 +8°C° 0 mm 2 m/s 709 mmHg 51%
23:00 +7°C° 0 mm 2 m/s 709 mmHg 54%

Demain, 16 Mai, Dimanche

Heure Température Précipitation Vent Pression Humidité
00:00 +6°C° 0 mm 2 m/s 709 mmHg 56%
01:00 +5°C° 0 mm 2 m/s 709 mmHg 58%
02:00 +6°C° 0 mm 1 m/s 709 mmHg 59%
03:00 +6°C° 0 mm 1 m/s 709 mmHg 58%
04:00 +6°C° 0 mm 1 m/s 709 mmHg 58%
05:00 +6°C° 0 mm 1 m/s 709 mmHg 57%
06:00 +9°C° 0 mm 1 m/s 709 mmHg 48%
07:00 +12°C° 0 mm 2 m/s 709 mmHg 39%
08:00 +15°C° 0 mm 2 m/s 708 mmHg 30%
09:00 +17°C° 0 mm 3 m/s 708 mmHg 26%
10:00 +19°C° 0 mm 3 m/s 708 mmHg 22%
11:00 +21°C° 0 mm 3 m/s 708 mmHg 19%
12:00 +21°C° 0 mm 4 m/s 707 mmHg 18%
13:00 +21°C° 0 mm 4 m/s 707 mmHg 18%
14:00 +22°C° 0 mm 5 m/s 706 mmHg 18%
15:00 +21°C° 0 mm 5 m/s 706 mmHg 20%
16:00 +20°C° 0 mm 5 m/s 706 mmHg 23%
17:00 +20°C° 0 mm 5 m/s 706 mmHg 25%
18:00 +17°C° 0 mm 4 m/s 706 mmHg 32%
19:00 +14°C° 0 mm 3 m/s 706 mmHg 39%
20:00 +12°C° 0 mm 2 m/s 706 mmHg 46%
21:00 +12°C° 0 mm 2 m/s 706 mmHg 50%
22:00 +10°C° 0 mm 2 m/s 706 mmHg 54%
23:00 +10°C° 0 mm 2 m/s 706 mmHg 58%

Après-demain, 17 Mai, Lundi

Heure Température Précipitation Vent Pression Humidité
00:00 +9°C° 0 mm 2 m/s 706 mmHg 63%
01:00 +8°C° 0 mm 2 m/s 706 mmHg 68%
02:00 +9°C° 0 mm 1 m/s 706 mmHg 73%
03:00 +9°C° 0 mm 1 m/s 706 mmHg 74%
04:00 +9°C° 0 mm 1 m/s 706 mmHg 75%
05:00 +9°C° 0 mm 1 m/s 707 mmHg 76%
06:00 +10°C° 0 mm 2 m/s 707 mmHg 62%
07:00 +12°C° 0 mm 3 m/s 708 mmHg 49%
08:00 +13°C° 0 mm 4 m/s 708 mmHg 35%
09:00 +15°C° 0 mm 4 m/s 708 mmHg 30%
10:00 +17°C° 0 mm 4 m/s 708 mmHg 24%
11:00 +18°C° 0 mm 4 m/s 708 mmHg 19%
12:00 +19°C° 0 mm 4 m/s 708 mmHg 18%
13:00 +19°C° 0 mm 3 m/s 707 mmHg 17%
14:00 +20°C° 0 mm 3 m/s 707 mmHg 17%
15:00 +20°C° 0 mm 3 m/s 707 mmHg 19%
16:00 +20°C° 0 mm 3 m/s 706 mmHg 21%
17:00 +20°C° 0 mm 3 m/s 706 mmHg 24%
18:00 +17°C° 0 mm 3 m/s 706 mmHg 37%
19:00 +14°C° 0 mm 2 m/s 706 mmHg 50%
20:00 +12°C° 0 mm 2 m/s 706 mmHg 64%
21:00 +10°C° 0.7 mm 2 m/s 706 mmHg 73%
22:00 +8°C° 0.7 mm 2 m/s 706 mmHg 82%
23:00 +7°C° 0.7 mm 2 m/s 706 mmHg 91%

18 Mai, Mardi

Heure Température Précipitation Vent Pression Humidité
00:00 +7°C° 0.2 mm 2 m/s 706 mmHg 91%
01:00 +8°C° 0.2 mm 1 m/s 705 mmHg 91%
02:00 +7°C° 0.2 mm 1 m/s 705 mmHg 91%
03:00 +7°C° 0 mm 1 m/s 705 mmHg 91%
04:00 +7°C° 0 mm 1 m/s 705 mmHg 91%
05:00 +7°C° 0 mm 1 m/s 706 mmHg 91%
06:00 +9°C° 0 mm 1 m/s 706 mmHg 84%
07:00 +9°C° 0 mm 2 m/s 706 mmHg 77%
08:00 +12°C° 0 mm 2 m/s 706 mmHg 70%
09:00 +12°C° 0 mm 3 m/s 706 mmHg 55%
10:00 +14°C° 0 mm 4 m/s 706 mmHg 40%
11:00 +16°C° 0 mm 5 m/s 706 mmHg 25%
12:00 +16°C° 0 mm 6 m/s 706 mmHg 23%
13:00 +16°C° 0 mm 6 m/s 706 mmHg 20%
14:00 +16°C° 0 mm 6 m/s 707 mmHg 18%
15:00 +16°C° 0 mm 5 m/s 707 mmHg 19%
16:00 +16°C° 0 mm 5 m/s 707 mmHg 21%
17:00 +15°C° 0 mm 4 m/s 707 mmHg 22%
18:00 +13°C° 0 mm 3 m/s 708 mmHg 28%
19:00 +12°C° 0 mm 2 m/s 709 mmHg 34%
20:00 +9°C° 0 mm 1 m/s 709 mmHg 39%
21:00 +8°C° 0 mm 1 m/s 709 mmHg 42%
22:00 +7°C° 0 mm 1 m/s 710 mmHg 44%
23:00 +6°C° 0 mm 1 m/s 710 mmHg 46%

19 Mai, Mercredi

Heure Température Précipitation Vent Pression Humidité
00:00 +5°C° 0 mm 1 m/s 710 mmHg 48%
01:00 +5°C° 0 mm 1 m/s 711 mmHg 50%
02:00 +4°C° 0 mm 1 m/s 711 mmHg 52%
03:00 +4°C° 0 mm 1 m/s 711 mmHg 51%
04:00 +5°C° 0 mm 1 m/s 711 mmHg 51%
05:00 +5°C° 0 mm 1 m/s 712 mmHg 50%
06:00 +8°C° 0 mm 1 m/s 712 mmHg 42%
07:00 +11°C° 0 mm 1 m/s 712 mmHg 34%
08:00 +13°C° 0 mm 2 m/s 712 mmHg 25%
09:00 +15°C° 0 mm 2 m/s 712 mmHg 23%
10:00 +17°C° 0 mm 2 m/s 711 mmHg 22%
11:00 +18°C° 0 mm 3 m/s 711 mmHg 20%
12:00 +19°C° 0 mm 3 m/s 710 mmHg 20%
13:00 +20°C° 0 mm 3 m/s 709 mmHg 21%
14:00 +21°C° 0 mm 4 m/s 709 mmHg 21%
15:00 +21°C° 0 mm 4 m/s 708 mmHg 23%
16:00 +21°C° 0 mm 3 m/s 708 mmHg 25%
17:00 +21°C° 0 mm 3 m/s 707 mmHg 26%
18:00 +19°C° 0 mm 3 m/s 707 mmHg 27%
19:00 +18°C° 0 mm 4 m/s 707 mmHg 28%
20:00 +15°C° 0 mm 4 m/s 706 mmHg 29%
21:00 +15°C° 0 mm 4 m/s 706 mmHg 30%
22:00 +15°C° 0 mm 4 m/s 706 mmHg 31%
23:00 +14°C° 0 mm 4 m/s 706 mmHg 32%

20 Mai, Jeudi

Heure Température Précipitation Vent Pression Humidité
00:00 +14°C° 0.1 mm 3 m/s 706 mmHg 37%
01:00 +14°C° 0.1 mm 2 m/s 705 mmHg 42%
02:00 +13°C° 0.1 mm 1 m/s 705 mmHg 47%
03:00 +13°C° 0 mm 1 m/s 705 mmHg 49%
04:00 +13°C° 0 mm 1 m/s 705 mmHg 51%
05:00 +11°C° 0 mm 0 m/s 704 mmHg 53%
06:00 +11°C° 0.3 mm 0 m/s 705 mmHg 59%
07:00 +11°C° 0.3 mm 0 m/s 705 mmHg 65%
08:00 +11°C° 0.3 mm 0 m/s 706 mmHg 71%
09:00 +15°C° 0 mm 1 m/s 706 mmHg 64%
10:00 +18°C° 0 mm 1 m/s 706 mmHg 56%
11:00 +21°C° 0 mm 1 m/s 707 mmHg 48%
12:00 +22°C° 0 mm 1 m/s 707 mmHg 45%
13:00 +22°C° 0 mm 1 m/s 707 mmHg 43%
14:00 +23°C° 0 mm 1 m/s 707 mmHg 41%
15:00 +23°C° 0 mm 1 m/s 707 mmHg 41%
16:00 +23°C° 0 mm 2 m/s 707 mmHg 42%
17:00 +23°C° 0 mm 2 m/s 706 mmHg 42%
18:00 +19°C° 0 mm 2 m/s 707 mmHg 53%
19:00 +17°C° 0 mm 2 m/s 707 mmHg 64%
20:00 +14°C° 0 mm 2 m/s 707 mmHg 75%
21:00 +14°C° 0.1 mm 2 m/s 708 mmHg 78%
22:00 +13°C° 0.1 mm 2 m/s 708 mmHg 80%
23:00 +13°C° 0.1 mm 2 m/s 708 mmHg 83%
Voir plus

Nous avons besoin de votre consentement

Meteoprog et ses fournisseurs de services peuvent stocker et accéder à des données personnelles telles que des cookies, des identifiants d'appareils ou d'autres technologies similaires sur votre appareil et traiter ces données pour personnaliser le contenu et les publicités, ainsi que pour fournir des fonctionnalités de médias sociaux et analyser le trafic.

  • Stocker et/ou accéder à des informations sur votre appareil

    Des cookies, des identifiants d'appareils ou d'autres informations peuvent être stockés ou accessibles sur votre appareil aux fins indiquées ci-dessus.

  • Annonces et contenus personnalisés, mesure des annonces et des contenus, connaissance de l'audience et développement de produits

    Les annonces et le contenu peuvent être personnalisés en fonction d'un profil. D'autres données peuvent être ajoutées pour mieux personnaliser les annonces et le contenu. Les performances des publicités et du contenu peuvent être mesurées. Il est possible d'obtenir des informations sur le public qui a vu les publicités et le contenu. Ces données peuvent être utilisées pour développer ou améliorer l'expérience de l'utilisateur, les systèmes et les logiciels.

En cliquant sur "J'accepte", vous autorisez l'utilisation de cookies, des identifiants d'appareils, des balises web ou d'autres technologies similaires. Vos paramètres peuvent être modifiés dans le navigateur de votre appareil.

Dans certains cas, des intérêts légitimes peuvent être invoqués plutôt qu'un consentement. Vous pouvez en savoir plus à ce sujet dans notre Politique de confidentialité et de cookies.